Location: Newark
(35.8582°N, 82.7116°W)
Time: 04:57:28
(UTC+00:00)

Hubble Space Telescope - Visible Passes

Search period start: 23 September 2019 00:00
Search period end: 03 October 2019 00:00
Orbit: 536 x 540 km, 28.5° (Epoch: 22 September)

Date Brightness Start Highest point End Pass type
(mag) Time Alt. Az. Time Alt. Az. Time Alt. Az.
30 Sep 3.0 00:49:03 10° SSW 00:50:21 13° S 00:50:21 13° S visible
01 Oct 2.6 00:37:55 10° SSW 00:40:34 17° SSE 00:40:34 17° SSE visible
02 Oct 2.4 00:26:56 10° SSW 00:29:54 19° SSE 00:30:43 18° SSE visible
